Dewpoint
-10 -9 -10 -11 -11 -12 -12 -12 -11 -10 -10 -9 -10 -10 -9 -6 -6 -6 -3 -4 -3 -2 -2 -1 -1 -1 -0 1 1 1 1 1 1 1 0 0 -1 -2 -3 -4 -5 -5 -4 -4 -2 2 5 5 6 7 9 9 9 11 13 15 18 20 20 18 18 20 21 20 18 17 17 22 21 19 20 21 19 21 22 23 24 25 28 27 27 27 29 31 32
-10 -11 -11 -11 -12 -12 -11 -11 -10 -10 -10 -9 -9 -8 -8 -7 -7 -5 -5 -4 -3 -2 -1 2 1 1 1 1 2 2 2 2 2 2 2 2 0 -1 -2 -3 -3 -3 -3 -3 -2 1 2 3 4 5 7 9 10 10 11 13 16 18 20 20 20 19 20 20 20 18 18 17 17 18 18 18 17 18 20 22 22 24 24 25 26 26 27 29 30
-11 -11 -11 -11 -11 -11 -11 -10 -9 -9 -9 -8 -9 -8 -8 -8 -5 -5 -4 -3 -1 -1 0 1 1 2 2 3 3 3 3 2 3 3 3 4 3 2 1 -0 -1 -2 -2 -3 -2 1 1 2 3 4 4 6 7 9 11 12 14 17 18 20 21 20 20 19 18 16 16 17 18 18 19 19 19 19 20 22 23 23 23 23 24 25 25 27 28
-11 -11 -11 -11 -12 -11 -11 -10 -10 -10 -10 -10 -10 -9 -8 -7 -4 -3 -2 -1 -0 -1 -0 -0 1 1 2 1 2 2 2 3 3 3 3 3 3 3 3 2 2 2 1 1 1 2 2 2 3 4 5 5 6 7 8 9 10 13 16 18 19 20 19 18 17 15 14 13 17 17 18 19 19 20 21 23 24 24 23 24 22 22 24 25 26
-11 -11 -11 -10 -10 -10 -10 -10 -10 -10 -10 -9 -9 -8 -6 -5 -4 -3 -2 -2 -2 -1 -1 -0 0 1 1 2 2 2 3 3 4 4 4 5 4 4 4 3 2 2 2 2 6 3 3 3 4 4 5 5 5 6 7 7 8 10 12 16 18 18 18 18 17 17 14 13 15 15 16 17 19 20 22 23 23 24 22 22 23 24 24 24 24
-11 -11 -11 -10 -10 -10 -10 -10 -10 -10 -10 -9 -8 -7 -6 -5 -4 -3 -2 -2 -2 -1 -1 -0 0 1 1 1 2 2 3 4 4 5 5 5 5 6 6 5 4 4 3 2 3 3 3 3 3 4 4 4 4 5 7 7 8 9 9 11 15 16 17 17 17 16 15 15 15 16 16 17 17 18 20 22 23 22 23 24 22 21 22 23 24
-11 -11 -11 -10 -10 -10 -10 -11 -11 -10 -9 -8 -7 -6 -6 -5 -3 -3 -2 -1 -1 -1 -1 -1 0 1 1 2 2 3 4 5 5 5 5 6 7 7 7 6 5 5 4 4 3 3 3 3 4 5 5 5 5 6 7 7 9 9 11 11 12 15 18 19 18 16 15 14 15 15 16 17 18 17 19 22 24 23 23 23 24 21 22 23 24
-10 -10 -10 -10 -11 -11 -11 -11 -10 -9 -8 -7 -6 -6 -4 -4 -3 -3 -1 -2 -1 -1 -1 -1 -0 0 1 2 2 3 5 5 6 6 7 8 8 8 8 7 6 5 5 4 4 4 4 4 4 5 6 6 5 5 6 7 7 8 11 12 13 14 15 17 18 19 18 17 18 18 18 17 17 20 20 21 21 21 23 23 22 23 23 23 25
-10 -11 -11 -11 -12 -11 -11 -10 -9 -8 -7 -7 -6 -5 -4 -4 -3 -2 -2 -2 -0 -0 0 0 1 1 1 2 2 4 5 6 7 8 8 9 9 9 9 8 7 6 5 5 5 4 4 4 4 5 6 11 12 12 13 13 8 8 9 10 12 14 16 17 17 17 17 17 17 17 17 17 16 16 15 18 20 20 20 22 23 23 24 24 24
-11 -11 -12 -12 -12 -11 -10 -9 -8 -8 -7 -6 -5 -4 -3 -3 -2 -2 -3 -2 -2 -1 -1 0 1 1 2 3 4 5 6 7 10 15 16 13 11 10 10 9 9 8 7 6 5 5 5 4 5 9 9 10 10 11 13 14 15 13 11 10 11 13 13 14 15 15 15 15 14 14 13 14 14 14 16 16 17 19 22 22 22 23 23 22 23
-11 -12 -12 -12 -11 -10 -10 -9 -8 -8 -7 -6 -4 -4 -4 -3 -3 -3 -3 -3 -2 -1 -1 0 1 1 2 3 4 5 6 8 15 18 20 21 18 17 13 10 10 9 9 7 6 6 6 5 5 8 9 11 10 12 13 14 14 15 16 16 17 14 13 13 13 13 13 13 13 13 13 12 13 13 16 19 18 18 19 23 23 23 22 21 21
-11 -12 -12 -12 -11 -10 -10 -9 -8 -7 -6 -4 -4 -4 -4 -4 -4 -4 -4 -3 -2 -1 -1 -0 1 2 2 2 3 4 5 12 17 19 21 22 22 19 19 17 13 10 11 10 8 7 6 6 6 6 6 7 7 8 11 13 14 15 16 16 16 18 19 17 14 13 12 11 11 11 12 13 14 16 17 21 22 22 23 23 24 23 22 22 22
-12 -11 -12 -11 -10 -10 -9 -8 -8 -6 -5 -5 -5 -5 -5 -5 -5 -5 -4 -3 -2 -2 -1 -1 0 1 1 1 2 4 6 14 18 20 21 23 24 23 21 20 18 14 11 11 11 9 8 7 6 6 6 11 11 10 7 6 12 13 14 15 16 17 18 19 20 18 14 12 10 10 11 12 13 15 17 19 22 23 23 23 24 24 24 23 23
-11 -11 -10 -10 -10 -9 -8 -8 -7 -7 -6 -6 -6 -6 -6 -6 -5 -5 -4 -3 -2 -2 -1 -1 -0 0 1 2 3 5 7 13 18 20 22 24 25 25 24 22 20 18 15 13 12 11 10 8 7 7 8 8 10 10 10 9 7 7 7 9 10 13 16 18 19 20 20 17 15 13 13 14 14 16 19 22 22 22 23 23 25 24 23 23 23
-10 -10 -11 -10 -9 -8 -8 -8 -8 -7 -7 -7 -7 -7 -7 -6 -5 -5 -4 -3 -3 -3 -2 -2 -1 1 2 3 4 5 6 16 19 21 23 24 24 24 22 22 21 19 18 16 14 13 12 11 10 9 8 8 9 11 10 10 10 9 8 7 7 7 8 9 11 14 16 17 19 19 19 19 18 18 19 21 23 23 24 24 25 25 25 24 21
-11 -11 -10 -10 -9 -9 -8 -8 -8 -8 -8 -8 -8 -7 -7 -7 -6 -5 -4 -3 -3 -2 -1 -0 0 1 2 3 3 4 6 16 19 21 23 23 23 22 22 21 21 20 19 18 17 15 14 13 12 12 11 10 13 17 16 12 11 10 9 9 8 8 7 12 14 15 14 13 15 16 18 19 21 21 22 22 22 23 24 24 25 24 23 22 22
-11 -10 -9 -9 -9 -9 -9 -9 -9 -9 -8 -8 -8 -8 -7 -7 -6 -5 -5 -4 -3 -2 -1 -1 1 1 2 3 3 5 7 13 19 21 21 21 21 21 20 21 21 21 20 20 19 18 17 16 15 14 13 13 15 19 20 19 13 11 10 9 9 8 8 8 15 18 18 18 20 20 21 22 22 23 23 23 22 23 24 24 23 24 23 22 22
-10 -10 -9 -9 -9 -9 -9 -10 -10 -9 -9 -9 -8 -8 -8 -7 -7 -5 -5 -4 -3 -1 -0 1 1 2 3 3 5 7 8 13 19 21 19 19 20 21 19 19 20 20 21 21 21 20 19 20 19 16 15 14 19 21 22 20 17 15 12 10 9 9 8 8 7 9 17 19 20 20 21 21 21 21 22 23 22 21 21 22 23 24 24 23 22
-9 -9 -8 -9 -8 -8 -10 -10 -10 -9 -10 -9 -9 -9 -9 -8 -6 -5 -4 -3 -2 -1 1 1 2 3 4 5 10 10 10 13 19 17 17 18 19 20 19 18 18 19 20 21 21 21 20 21 22 21 18 18 22 23 23 22 19 18 16 13 11 10 10 10 8 7 7 8 10 13 15 17 17 17 18 20 21 21 21 23 25 25 24 24 24
-9 -8 -8 -7 -7 -7 -8 -9 -9 -10 -9 -10 -10 -9 -8 -7 -6 -5 -4 -3 -2 -1 1 2 2 4 5 6 6 8 10 13 16 15 16 18 18 18 18 17 17 18 19 19 18 20 21 21 21 23 24 24 24 25 25 25 22 19 18 16 15 12 13 12 11 9 8 8 8 10 11 13 14 16 17 19 20 21 23 25 26 26 25 25 25
-8 -8 -9 -8 -8 -9 -8 -9 -11 -11 -11 -10 -9 -9 -8 -7 -6 -5 -5 -3 -1 -0 0 1 2 3 5 6 7 9 12 14 12 14 15 16 17 17 16 17 17 18 19 18 18 17 16 19 21 21 20 21 22 24 25 25 25 22 20 17 17 17 18 14 14 16 11 10 10 11 11 13 15 16 18 20 22 23 25 26 27 28 27 26 25
-8 -7 -9 -9 -9 -9 -9 -9 -10 -11 -11 -10 -11 -10 -9 -7 -6 -5 -3 -2 -1 -1 -1 1 1 2 4 6 8 10 13 14 11 12 14 15 16 17 15 16 18 18 17 16 16 17 20 19 17 17 19 20 22 23 24 24 24 24 22 24 23 23 20 18 16 15 15 13 12 13 13 14 15 16 18 19 20 21 23 24 26 27 28 28 27
-8 -8 -8 -9 -9 -9 -9 -11 -11 -11 -11 -11 -11 -11 -9 -8 -6 -4 -2 -2 -2 -2 -2 -1 -0 1 3 5 8 11 14 11 12 10 12 14 16 16 17 17 18 18 17 16 16 17 19 18 17 18 20 21 22 23 23 24 24 24 25 27 26 25 23 20 19 18 17 17 16 15 15 15 16 17 18 18 19 20 22 23 25 27 28 29 29
-8 -8 -8 -9 -9 -10 -10 -11 -12 -12 -12 -11 -11 -10 -9 -7 -5 -4 -3 -2 -1 -1 -0 1 1 2 3 5 8 11 9 4 11 11 10 13 15 16 17 17 18 17 16 16 17 17 18 17 18 20 21 22 22 22 23 22 22 23 24 24 25 25 23 22 20 19 19 18 18 18 17 17 17 17 18 19 20 21 22 24 25 27 28 29 29
-8 -9 -9 -10 -11 -11 -12 -12 -12 -12 -12 -12 -11 -9 -8 -6 -5 -4 -4 -3 -2 -2 -1 0 1 3 5 6 9 9 6 2 1 8 11 11 14 15 16 17 17 17 15 16 17 17 18 19 20 20 21 21 22 22 22 22 23 23 23 23 23 25 24 23 22 21 19 19 18 18 18 18 19 19 19 20 21 22 23 24 25 26 27 26 26
-10 -10 -11 -11 -12 -13 -14 -15 -15 -14 -13 -12 -10 -8 -7 -6 -5 -4 -3 -3 -3 -3 -3 -0 2 4 5 7 8 4 2 -0 2 4 10 11 13 15 16 16 16 16 16 15 17 18 18 18 18 19 19 18 19 18 18 18 21 22 23 23 22 23 24 23 23 22 20 19 19 18 18 19 19 20 21 21 21 22 23 23 24 25 25 25 24
-10 -11 -12 -12 -13 -13 -14 -14 -13 -12 -11 -11 -9 -7 -6 -6 -6 -4 -3 -4 -3 -2 -1 2 4 5 8 7 5 2 -1 -1 2 5 7 9 11 14 15 15 16 16 15 15 18 18 17 16 16 16 15 16 16 16 16 15 16 17 17 18 21 22 23 23 23 23 22 21 20 20 20 20 20 21 21 21 22 23 24 24 24 24 25 25 24
-11 -11 -13 -12 -13 -14 -15 -11 -10 -12 -11 -11 -10 -9 -8 -7 -7 -6 -5 -3 -1 1 2 3 5 8 6 5 2 0 -0 1 5 6 8 11 13 14 15 14 13 13 15 17 13 10 8 13 11 9 9 8 9 9 10 11 13 14 14 15 17 18 22 25 24 23 22 22 21 21 21 21 21 21 21 22 22 23 24 24 24 24 24 24 22
-10 -12 -12 -12 -14 -12 -12 -12 -12 -13 -14 -12 -11 -9 -8 -7 -5 -3 -2 1 3 3 4 7 9 9 8 6 4 3 4 5 6 12 12 13 13 12 12 12 14 16 15 14 8 6 6 7 6 6 5 6 6 6 7 8 10 11 11 13 14 15 16 17 21 22 23 22 21 21 20 21 21 22 22 21 22 24 24 24 24 24 24 24 22
-11 -12 -12 -13 -15 -14 -12 -13 -14 -13 -14 -13 -12 -10 -4 4 3 2 2 7 8 9 9 8 8 8 8 8 8 6 6 7 12 13 13 13 14 14 14 16 16 14 14 12 8 1 2 2 3 3 3 4 4 4 5 6 7 8 9 12 12 13 13 14 14 15 18 21 22 21 21 21 20 21 21 21 22 22 24 24 24 25 23 22 22
-11 -12 -12 -13 -13 -13 -13 -13 -14 -15 -14 -13 -13 -11 -10 -7 5 7 6 6 7 8 8 9 9 9 8 7 7 8 9 11 12 12 13 13 13 13 14 15 14 13 12 7 3 1 1 1 0 1 1 2 1 1 3 3 4 5 7 9 10 11 12 12 13 14 15 16 20 22 22 21 20 20 20 21 21 22 23 24 24 25 24 22 22
-12 -12 -12 -12 -13 -12 -12 -13 -13 -13 -13 -14 -14 -12 -11 -11 -9 -0 5 5 6 7 7 7 9 9 9 8 8 8 10 10 11 11 12 12 13 12 13 14 13 11 10 8 1 -0 -0 -2 -2 -3 -2 -3 -3 -2 -1 -0 0 2 4 5 6 8 9 10 12 13 13 14 15 18 21 21 21 21 21 21 21 21 21 22 23 24 24 23 23
-11 -12 -13 -13 -13 -12 -12 -12 -11 -11 -13 -12 -13 -12 -12 -11 -10 -9 -4 2 4 5 5 7 8 8 8 8 10 11 10 10 11 11 12 12 12 10 11 13 12 9 5 -3 -5 -5 -5 -6 -6 -6 -5 -5 -5 -5 -4 -3 -2 -1 1 2 3 5 7 9 12 12 12 12 14 14 16 17 21 22 21 21 21 20 21 21 22 23 23 23 22
-11 -12 -12 -13 -13 -13 -13 -12 -12 -12 -12 -13 -13 -12 -10 -8 -8 -8 -9 -11 -8 -3 1 4 6 7 6 7 9 10 10 10 10 11 11 11 11 9 8 5 9 9 2 -7 -7 -8 -8 -8 -8 -8 -8 -7 -7 -6 -6 -5 -4 -4 -3 -1 1 3 4 8 10 10 10 11 11 12 13 15 17 17 20 22 21 21 21 21 22 22 22 22 22
-11 -11 -11 -11 -13 -13 -13 -12 -12 -12 -12 -12 -11 -10 -10 -9 -6 -6 -7 -9 -10 -11 -11 -10 -1 2 0 2 6 9 9 9 9 10 10 10 10 8 4 -7 -8 -8 -8 -7 -8 -9 -9 -9 -10 -10 -9 -9 -9 -8 -9 -8 -7 -6 -5 -3 -2 -1 2 6 8 8 8 9 10 11 12 13 14 16 17 20 23 22 21 21 22 22 22 22 22
-11 -12 -12 -11 -11 -11 -11 -11 -11 -12 -12 -12 -10 -9 -7 -7 -7 -8 -7 -8 -10 -12 -13 -15 -14 -2 -0 1 3 5 9 8 8 9 9 8 7 5 -9 -9 -9 -9 -9 -9 -10 -10 -10 -11 -11 -11 -11 -10 -10 -10 -10 -10 -9 -8 -6 -4 -4 -3 -1 4 7 7 6 7 8 9 11 11 12 13 15 17 20 23 23 22 22 22 22 22 21
-12 -12 -13 -12 -12 -12 -12 -12 -12 -12 -8 -8 -8 -9 -9 -8 -7 -9 -9 -11 -11 -11 -15 -17 -15 -13 -7 -5 1 2 6 6 7 7 7 6 5 -7 -10 -10 -12 -13 -11 -13 -12 -12 -14 -14 -12 -13 -12 -11 -11 -12 -11 -12 -10 -9 -5 -6 -6 -5 -2 3 5 4 4 5 6 6 7 9 10 11 12 13 16 19 22 23 22 21 21 21 18
-12 -12 -12 -12 -13 -13 -13 -13 -12 -8 -8 -7 -8 -9 -9 -10 -10 -9 -10 -11 -10 -11 -15 -18 -7 -16 -15 -10 -0 -5 -7 -1 1 0 0 -1 -11 -13 -14 -13 -13 -14 -13 -13 -12 -14 -14 -14 -13 -12 -12 -13 -13 -12 -12 -11 -10 -10 -9 -9 -7 -5 -0 0 1 1 2 3 4 5 6 7 8 9 11 11 13 16 19 21 22 21 21 19 19
-12 -11 -11 -11 -11 -13 -13 -12 -11 -10 -10 -9 -10 -9 -8 -9 -9 -12 -14 -15 -15 -16 -14 -17 -17 -16 -15 -10 -8 -9 -11 -16 -15 -15 -15 -15 -15 -16 -17 -17 -16 -15 -14 -14 -13 -13 -15 -14 -13 -12 -12 -13 -13 -12 -12 -11 -11 -11 -10 -10 -10 -9 -6 -4 -4 -2 -2 -1 0 3 4 4 6 7 9 10 11 13 16 20 20 21 20 19 19
-12 -12 -11 -10 -11 -10 -10 -10 -9 -9 -9 -10 -11 -11 -10 -10 -11 -12 -14 -18 -18 -16 -18 -15 -15 -17 -16 -9 -7 -13 -16 -17 -16 -17 -17 -17 -17 -17 -18 -18 -17 -17 -16 -15 -14 -14 -14 -15 -14 -14 -14 -14 -13 -12 -11 -11 -11 -10 -10 -10 -10 -10 -9 -8 -7 -6 -6 -4 -3 -1 1 2 4 6 7 8 10 11 13 16 19 19 19 18 18
-12 -12 -11 -11 -10 -10 -8 -8 -8 -9 -10 -10 -10 -11 -12 -10 -10 -11 -15 -16 -15 -14 -14 -18 -20 -20 -12 -4 -1 -6 -18 -18 -17 -17 -17 -17 -17 -18 -18 -18 -17 -17 -17 -16 -15 -14 -14 -14 -14 -14 -14 -14 -13 -12 -11 -11 -11 -11 -11 -10 -11 -10 -10 -11 -10 -10 -9 -8 -7 -4 -2 0 3 5 5 7 11 12 11 12 15 18 18 17 17
-12 -12 -12 -12 -10 -9 -9 -9 -9 -8 -8 -9 -11 -12 -11 -11 -12 -13 -13 -13 -13 -14 -18 -17 -21 -20 -9 -4 -3 1 -15 -18 -15 -16 -17 -18 -18 -18 -17 -18 -18 -18 -18 -16 -15 -14 -14 -14 -13 -13 -13 -13 -13 -12 -11 -11 -12 -13 -13 -13 -12 -12 -11 -12 -11 -12 -12 -11 -10 -8 -4 -2 2 4 5 9 6 7 9 11 12 14 14 14 14
-11 -12 -12 -11 -10 -9 -10 -10 -9 -10 -10 -11 -12 -8 -9 -12 -13 -12 -12 -12 -13 -13 -15 -16 -18 -16 -13 -9 -10 -10 -18 -20 -12 -17 -17 -17 -18 -17 -19 -19 -18 -18 -18 -16 -15 -14 -14 -15 -14 -13 -12 -12 -12 -11 -10 -10 -11 -12 -13 -13 -12 -12 -12 -11 -11 -11 -12 -12 -12 -9 -6 -3 -1 2 3 4 5 6 7 8 9 10 10 11 10
-12 -12 -12 -11 -10 -10 -9 -10 -10 -10 -11 -10 -9 -10 -10 -11 -12 -14 -16 -16 -15 -14 -16 -18 -18 -16 -16 -15 -14 -16 -19 -19 -19 -20 -17 -16 -18 -18 -21 -21 -20 -19 -18 -17 -16 -15 -15 -15 -15 -14 -13 -12 -11 -11 -10 -9 -10 -11 -12 -12 -12 -11 -12 -12 -12 -12 -11 -12 -11 -9 -7 -5 -2 1 2 3 4 5 5 6 6 7 8 8 8
-12 -12 -12 -12 -11 -11 -11 -10 -10 -10 -9 -9 -11 -12 -10 -13 -14 -16 -15 -17 -14 -14 -16 -16 -15 -15 -15 -18 -19 -18 -20 -20 -16 -17 -18 -19 -20 -21 -23 -23 -21 -20 -20 -17 -17 -16 -16 -14 -14 -14 -14 -13 -12 -11 -10 -9 -9 -9 -9 -10 -12 -13 -13 -12 -12 -11 -9 -10 -10 -10 -8 -6 -3 -0 1 2 2 3 3 3 4 3 5 5 6
-12 -12 -12 -12 -11 -11 -11 -11 -9 -10 -10 -10 -12 -13 -15 -14 -16 -15 -14 -15 -15 -15 -18 -16 -16 -16 -18 -20 -20 -15 -19 -20 -19 -19 -17 -20 -21 -23 -23 -23 -22 -21 -21 -20 -18 -18 -16 -15 -14 -15 -15 -14 -12 -12 -11 -10 -10 -9 -9 -9 -10 -10 -10 -10 -10 -10 -9 -9 -9 -9 -9 -6 -4 -1 -1 1 1 1 2 3 3 3 4 3 4
-12 -12 -12 -11 -11 -11 -11 -11 -11 -11 -11 -12 -13 -14 -16 -16 -18 -15 -12 -14 -15 -13 -16 -19 -20 -19 -20 -19 -19 -22 -19 -18 -20 -18 -20 -21 -22 -25 -27 -23 -21 -22 -21 -20 -20 -19 -18 -17 -17 -16 -16 -15 -13 -12 -11 -11 -10 -9 -9 -9 -10 -10 -10 -10 -10 -9 -9 -8 -8 -8 -8 -7 -5 -4 -2 -1 0 1 1 1 1 1 2 1 2
-12 -12 -12 -11 -11 -11 -11 -11 -11 -10 -12 -12 -12 -14 -14 -15 -15 -15 -17 -16 -16 -16 -17 -18 -22 -23 -18 -19 -18 -19 -18 -19 -19 -18 -19 -22 -26 -26 -25 -24 -21 -23 -22 -21 -21 -20 -19 -19 -18 -18 -17 -16 -14 -14 -13 -12 -11 -10 -10 -10 -10 -10 -9 -9 -9 -9 -9 -8 -7 -8 -8 -7 -7 -6 -5 -3 -2 -1 -0 -1 -1 -0 0 0 0
-12 -12 -12 -12 -12 -11 -12 -12 -12 -12 -12 -13 -13 -12 -13 -14 -15 -16 -17 -17 -18 -17 -20 -21 -22 -20 -19 -20 -18 -19 -18 -17 -21 -25 -25 -26 -25 -26 -25 -23 -20 -23 -22 -23 -22 -21 -21 -20 -18 -17 -18 -17 -16 -15 -14 -13 -11 -10 -10 -10 -10 -10 -9 -9 -9 -9 -8 -7 -7 -8 -8 -8 -8 -8 -8 -7 -5 -4 -3 -3 -2 -2 -1 -1 -1
-12 -12 -12 -12 -12 -12 -12 -12 -12 -12 -12 -13 -14 -14 -14 -15 -16 -17 -18 -18 -19 -19 -22 -21 -20 -22 -23 -20 -19 -19 -19 -21 -22 -23 -27 -28 -28 -26 -24 -25 -24 -24 -24 -24 -23 -22 -22 -22 -21 -20 -18 -18 -17 -16 -16 -14 -13 -11 -11 -11 -11 -10 -10 -9 -9 -8 -8 -8 -8 -8 -9 -9 -9 -9 -9 -8 -8 -7 -6 -6 -5 -4 -2 -2 -2
-12 -12 -12 -12 -12 -12 -12 -12 -12 -13 -13 -14 -14 -15 -15 -15 -16 -16 -18 -18 -19 -21 -20 -23 -24 -23 -22 -24 -19 -21 -20 -24 -25 -27 -27 -27 -26 -23 -23 -24 -24 -25 -25 -25 -24 -24 -23 -22 -21 -19 -19 -17 -17 -16 -17 -15 -15 -12 -11 -11 -11 -11 -10 -10 -9 -8 -8 -8 -8 -9 -9 -10 -10 -10 -10 -10 -9 -8 -8 -8 -8 -6 -6 -5 -5